Bridgeport, CT

2:41 PM EST on December 18, 2017 (GMT -0500)
Sikorsky Memorial

Weather History for KBDR - December, 2012

Change the Weather History Date:

Sunday, December 30, 2012

  Actual Average Record
Temperature  
Mean Temperature 31 °F 31 °F  
Max Temperature 35 °F 38 °F 61 °F (1984)
Min Temperature 27 °F 24 °F -1 °F (1962)
Degree Days  
Heating Degree Days 34 34  
Month to date heating degree days 747 887  
Since 1 July heating degree days 1663 1861  
Cooling Degree Days 0 0  
Month to date cooling degree days 0 0  
Year to date cooling degree days 1075 825  
Moisture  
Dew Point 18 °F    
Average Humidity 64    
Maximum Humidity 85    
Minimum Humidity 43    
Precipitation  
Precipitation 0.00 in 0.10 in 1.69 in (1948)
Month to date precipitation 4.32 3.24  
Year to date precipitation 40.99 42.65  
Snow  
Snow 0.00 in 0.30 in 10.00 in (2000)
Month to date snowfall 7.8 4.9  
Since 1 July snowfall 16.2 5.6  
Snow Depth 0.00 in    
Sea Level Pressure  
Sea Level Pressure 29.83 in    
Wind  
Wind Speed 15 mph (WNW)    
Max Wind Speed 28 mph    
Max Gust Speed 36 mph    
Visibility 10 miles    
Events      
T = Trace of Precipitation, MM = Missing Value Source: NWS Daily Summary

Daily Weather History Graph

Daily Weather History Graph

Search for Another Location

Airport or City:

Trip Planner

Search our weather history database for the weather conditions in past years. The results will help you decide how hot, cold, wet, or windy it might be!

Date:

Astronomy

Dec. 30, 2012 Rise Set
Actual Time 7:17 AM EST 4:33 PM EST
Civil Twilight 6:46 AM EST 5:04 PM EST
Nautical Twilight 6:11 AM EST 5:38 PM EST
Astronomical Twilight 5:38 AM EST 6:12 PM EST
Moon 7:03 PM EST (12/30) 8:23 AM EST (12/30)
Length of Visible Light 10h 17m
Length of Day
9h 15m
Waning Gibbous, 95% of the Moon is Illuminated
Dec 30
Waning Gibbous
Jan 4
Last Quarter
Jan 11
New
Jan 18
First Quarter
Jan 26
Full

Hourly Weather History & Observations

Time (EST) Temp. Windchill Dew Point Humidity Pressure Visibility Wind Dir Wind Speed Gust Speed Precip Events Conditions
12:52 AM 32.0 °F 23.6 °F 27.0 °F 82% 29.54 in 10.0 mi NW 10.4 mph - N/A   Mostly Cloudy
1:52 AM 30.0 °F 21.1 °F 23.0 °F 75% 29.56 in 10.0 mi NW 10.4 mph 19.6 mph N/A   Clear
2:52 AM 30.0 °F 19.5 °F 23.0 °F 75% 29.59 in 10.0 mi NW 13.8 mph 19.6 mph N/A   Clear
3:52 AM 28.9 °F 17.7 °F 23.0 °F 78% 29.62 in 10.0 mi WNW 15.0 mph - N/A   Clear
4:52 AM 28.9 °F 17.7 °F 23.0 °F 78% 29.64 in 10.0 mi WNW 15.0 mph - N/A   Clear
5:52 AM 28.9 °F 15.4 °F 21.0 °F 72% 29.65 in 10.0 mi WNW 21.9 mph 31.1 mph N/A   Clear
6:52 AM 28.9 °F 16.9 °F 19.9 °F 69% 29.71 in 10.0 mi WNW 17.3 mph 23.0 mph N/A   Clear
7:17 AM 28.4 °F 16.2 °F 19.4 °F 69% 29.72 in 2.5 mi WNW 17.3 mph - 0.20 in   Haze
7:24 AM 28.4 °F 15.8 °F 19.4 °F 69% 29.73 in 10.0 mi WNW 18.4 mph 27.6 mph 0.20 in   Clear
7:52 AM 28.4 °F 16.2 °F 19.4 °F 69% 29.74 in 10.0 mi WNW 17.3 mph 25.3 mph N/A   Clear
8:52 AM 28.9 °F 17.7 °F 19.0 °F 67% 29.78 in 10.0 mi NW 15.0 mph 24.2 mph N/A   Clear
9:52 AM 30.0 °F 20.5 °F 19.0 °F 64% 29.84 in 10.0 mi WNW 11.5 mph - N/A   Clear
10:52 AM 30.9 °F 19.8 °F 19.0 °F 61% 29.85 in 10.0 mi WNW 16.1 mph 23.0 mph 0.02 in   Clear
11:52 AM 33.1 °F 21.5 °F 19.0 °F 56% 29.84 in 10.0 mi WNW 19.6 mph 28.8 mph N/A   Partly Cloudy
12:52 PM 34.0 °F 21.5 °F 19.0 °F 54% 29.84 in 10.0 mi NW 24.2 mph 31.1 mph N/A   Clear
1:52 PM 34.0 °F 21.5 °F 17.1 °F 50% 29.84 in 10.0 mi WNW 24.2 mph 35.7 mph N/A   Partly Cloudy
2:52 PM 34.0 °F 23.4 °F 16.0 °F 48% 29.88 in 10.0 mi WNW 17.3 mph 26.5 mph N/A   Clear
3:52 PM 33.1 °F 21.9 °F 14.0 °F 46% 29.91 in 10.0 mi WNW 18.4 mph 26.5 mph N/A   Clear
4:52 PM 30.9 °F 21.2 °F 15.1 °F 52% 29.96 in 10.0 mi West 12.7 mph 20.7 mph N/A   Clear
5:52 PM 30.0 °F 19.1 °F 14.0 °F 51% 30.00 in 10.0 mi WNW 15.0 mph 27.6 mph N/A   Clear
6:52 PM 30.0 °F 17.9 °F 14.0 °F 51% 30.04 in 10.0 mi WNW 18.4 mph 21.9 mph N/A   Clear
7:52 PM 28.9 °F 19.8 °F 12.9 °F 51% 30.08 in 10.0 mi WNW 10.4 mph 20.7 mph N/A   Clear
8:52 PM 28.0 °F 17.0 °F 12.9 °F 53% 30.08 in 10.0 mi NW 13.8 mph 23.0 mph N/A   Clear
9:52 PM 28.0 °F 17.0 °F 12.9 °F 53% 30.10 in 10.0 mi WNW 13.8 mph 18.4 mph N/A   Clear
10:52 PM 28.0 °F 20.8 °F 12.0 °F 51% 30.11 in 10.0 mi West 6.9 mph - N/A   Clear
11:52 PM 27.0 °F 18.0 °F 12.0 °F 53% 30.12 in 10.0 mi WNW 9.2 mph - N/A   Clear